Location: Unspecified
(44.0704°N, 88.6889°W)
Time: 11:10:22
(UTC+01:00)

Cosmos 1674 - Visible Passes

Search period start: 25 March 2019 00:00
Search period end: 04 April 2019 01:00
Orbit: 495 x 520 km, 82.5° (Epoch: 24 March)

Date Brightness Start Highest point End Pass type
(mag) Time Alt. Az. Time Alt. Az. Time Alt. Az.
25 Mar 2.8 02:57:24 10° NNW 03:01:10 70° W 03:02:59 29° S visible
26 Mar 2.5 02:39:55 10° N 02:43:43 87° E 02:46:33 17° S visible
27 Mar 2.6 02:22:28 10° N 02:26:15 66° E 02:30:01 10° SSE visible
28 Mar 2.9 02:05:04 10° N 02:08:46 49° ENE 02:12:28 10° SSE visible
28 Mar 5.9 03:42:32 10° WNW 03:43:50 12° W 03:45:09 10° WSW visible
29 Mar 3.2 01:47:42 10° N 01:51:16 38° ENE 01:54:50 10° SSE visible
29 Mar 5.7 03:24:17 10° NW 03:26:29 15° W 03:28:40 10° WSW visible
30 Mar 5.5 03:06:22 10° NW 03:09:06 19° W 03:11:50 10° SW visible
31 Mar 5.1 03:48:36 10° NW 03:51:43 24° W 03:54:49 10° SW visible
01 Apr 4.7 03:30:55 10° NNW 03:34:18 31° W 03:37:42 10° SSW visible
02 Apr 4.2 03:13:18 10° NNW 03:16:53 40° W 03:20:29 10° SSW visible
03 Apr 3.6 02:55:44 10° NNW 02:59:28 53° W 03:03:11 10° S visible
